Theta_e
324 322 319 315 310 307 304 304 308 312 315 316 315 315 317 317 318 318 318 318 318 318 319 320 320 320 321 321 322 321 321 320 320 319 318 318 317 317 316 315 314 314 313 313 313 313 312 311 311 310 310 309 308 308 307 307 306 306 306 305 305 305 305 304 304 304 304 304 304 304 304 304 304 304 303 303 303 304 303 303 303 303 303 303 303
325 323 321 317 312 308 305 303 306 310 313 315 315 315 315 317 317 318 318 318 318 319 319 319 320 321 321 321 321 321 320 320 319 319 318 318 317 316 315 314 313 313 312 312 312 312 311 310 310 310 309 309 308 307 307 307 306 306 305 305 304 304 304 304 304 304 304 304 303 303 303 303 303 303 303 303 303 303 303 303 302 302 302 302 302
325 324 322 319 314 309 306 304 304 308 312 313 314 315 315 316 317 317 318 318 318 319 320 320 320 321 321 321 321 320 320 319 319 318 318 317 316 315 314 313 312 312 311 311 311 311 310 310 309 310 309 309 308 307 307 306 306 306 305 305 304 304 304 303 303 303 303 303 303 303 302 302 302 302 302 303 303 303 302 302 302 302 302 302 302
325 324 323 320 316 310 306 305 304 306 310 313 313 314 315 315 316 317 317 317 318 319 320 320 320 320 320 320 320 320 320 319 318 317 317 316 316 314 313 312 311 311 311 312 311 312 311 310 309 309 309 309 308 307 307 306 306 305 305 305 304 304 303 303 303 303 303 303 302 302 302 302 302 302 302 302 302 302 302 302 302 301 301 301 301
325 324 323 321 317 311 307 305 304 305 309 312 313 313 314 314 316 316 317 317 318 318 319 320 320 320 319 319 319 319 319 318 317 316 316 315 315 314 312 311 311 311 312 311 311 311 311 310 309 309 308 308 308 307 306 306 305 305 305 304 304 304 303 302 302 302 302 302 302 302 302 302 302 302 302 302 302 302 301 301 301 301 300 301 301
326 325 322 321 318 313 309 306 305 305 308 311 312 312 313 313 314 315 316 316 317 318 319 319 319 319 319 318 318 318 317 316 316 315 315 314 314 313 312 311 311 311 311 311 311 310 310 309 309 308 308 307 307 306 306 305 305 304 304 304 304 303 303 302 302 302 302 302 301 301 302 301 301 301 301 301 301 301 301 301 301 300 300 300 300
327 326 323 321 319 316 311 307 305 305 308 310 311 311 312 312 313 314 315 316 317 317 318 318 318 318 318 318 318 317 317 316 316 315 314 314 314 313 311 310 310 309 309 309 309 309 308 308 308 308 307 307 306 306 305 305 305 304 304 304 303 303 302 302 302 301 301 301 301 301 301 301 301 301 301 301 301 301 301 300 300 300 300 300 299
326 326 324 322 322 320 316 310 306 305 307 309 310 310 311 312 312 313 314 315 316 316 317 317 317 317 316 317 317 316 316 315 315 314 314 313 313 312 311 310 308 306 305 307 308 308 308 308 307 307 306 306 306 305 305 305 304 303 303 303 303 302 302 302 301 301 301 301 301 301 301 300 300 301 300 300 300 300 300 300 300 299 299 299 299
326 327 326 323 323 323 321 316 310 306 306 307 308 309 310 311 312 313 313 314 315 315 315 315 315 315 315 315 315 315 315 315 314 313 313 312 312 311 310 309 307 304 303 306 307 307 307 307 307 306 306 306 306 306 305 305 304 304 303 302 302 302 301 301 301 301 301 301 301 301 301 300 300 300 300 300 300 300 300 299 299 299 299 299 299
327 327 326 325 324 324 324 322 316 308 306 307 308 309 310 311 311 312 313 314 315 315 315 314 314 313 313 313 313 313 313 313 312 312 312 311 310 310 309 307 305 303 303 305 306 306 306 306 306 306 305 305 305 305 305 304 304 303 303 302 301 301 301 301 301 301 301 301 301 300 300 300 300 300 300 300 299 299 299 299 299 299 299 298 298
328 327 327 326 325 324 324 323 319 311 307 307 308 308 309 310 311 312 312 313 314 315 314 313 312 312 311 310 310 311 311 311 310 310 310 310 310 308 307 306 304 302 303 305 306 305 306 305 305 305 305 305 305 305 304 304 303 303 302 302 301 301 300 300 301 301 300 301 300 300 300 300 300 299 299 299 299 299 298 298 298 298 298 298 298
329 329 327 326 326 326 325 323 320 315 310 308 309 309 309 309 310 311 311 311 311 313 313 312 310 308 307 307 307 307 308 308 308 309 309 308 308 307 306 305 303 302 302 304 305 305 305 305 305 305 304 304 304 304 304 303 303 302 302 302 301 300 300 300 300 300 300 300 300 300 300 300 300 299 299 299 298 298 298 298 298 298 298 297 297
330 329 328 327 326 325 325 324 321 317 315 313 312 311 309 309 309 310 310 310 308 308 310 311 308 304 302 303 304 305 305 306 306 307 307 307 306 306 305 304 302 301 301 304 304 304 304 304 304 304 304 304 304 304 303 302 302 302 302 301 301 300 300 300 300 300 299 298 298 299 299 299 299 299 299 298 298 298 298 298 298 297 297 297 297
329 328 328 328 326 324 324 324 322 319 317 315 313 312 309 308 308 308 308 309 308 307 307 308 307 303 300 300 300 301 302 302 304 305 304 305 305 305 304 303 301 299 300 303 303 304 304 303 303 303 303 303 303 303 302 302 301 301 301 301 301 300 300 300 300 299 298 298 297 297 298 299 298 298 298 298 298 298 298 297 297 297 296 296 296
330 329 327 327 327 325 324 324 322 320 318 314 311 311 309 307 307 308 307 306 306 306 307 308 307 303 301 301 298 298 301 300 300 303 303 302 303 303 302 301 299 298 299 302 303 303 303 303 302 301 302 302 302 302 302 301 301 301 301 301 301 301 300 300 300 298 297 297 296 296 297 297 298 298 298 297 297 297 297 296 296 296 296 296 296
330 330 328 327 327 325 322 322 321 320 319 315 311 311 311 309 308 307 306 305 303 304 306 308 308 305 302 299 294 296 304 301 296 298 299 299 299 299 300 299 298 297 297 298 300 302 302 302 300 297 300 301 299 301 301 300 301 300 300 300 300 300 301 300 300 299 297 297 297 296 296 296 297 298 297 297 297 297 296 296 296 295 295 295 295
330 330 330 329 327 324 321 319 319 318 316 313 312 312 311 310 309 307 306 306 304 302 303 304 307 308 306 302 298 301 304 297 295 297 295 296 297 296 297 297 296 296 295 295 297 301 301 300 296 294 298 298 296 298 299 299 300 299 298 300 298 297 298 300 300 299 298 298 297 297 296 295 296 297 297 297 296 296 296 296 295 295 295 295 294
329 329 330 330 329 327 324 320 318 318 315 311 310 310 308 308 308 308 306 307 306 301 300 302 303 305 307 307 307 307 303 295 296 298 294 292 293 293 294 293 293 293 293 293 295 298 299 296 292 291 294 293 291 294 294 296 299 297 297 299 297 294 294 296 298 298 297 297 298 297 296 296 295 296 296 296 296 296 296 295 295 295 294 294 294
330 329 328 329 329 327 324 322 320 319 317 313 311 311 311 309 308 309 308 306 305 302 301 301 299 301 304 305 305 304 302 297 297 301 300 295 290 290 291 290 289 289 289 291 293 295 295 293 290 289 291 290 288 289 289 293 297 296 295 297 296 293 290 290 292 293 293 294 296 297 297 296 295 295 295 296 295 295 295 295 295 294 294 293 294
331 330 329 328 327 327 325 324 322 322 320 318 317 317 315 312 308 307 306 303 303 303 303 300 298 300 302 302 302 301 300 298 297 300 301 298 293 289 288 288 288 288 287 288 289 291 291 290 288 287 288 288 288 288 288 290 293 293 293 294 293 290 287 287 287 287 287 288 290 295 297 296 295 295 295 295 295 295 295 295 294 294 294 293 293
329 329 329 328 327 327 326 323 321 320 320 319 318 318 316 314 310 307 305 304 304 303 303 301 301 302 302 300 300 298 296 295 295 295 295 297 297 292 288 288 287 288 288 287 287 287 287 287 287 287 287 288 287 288 287 288 289 289 289 289 288 287 286 286 286 286 286 285 286 289 293 295 295 295 295 294 295 295 294 294 294 294 293 293 293
328 328 328 329 328 326 325 323 322 320 318 317 316 316 315 312 310 308 307 305 304 303 302 302 302 303 303 302 299 296 294 292 291 291 291 293 296 294 290 288 288 288 288 287 287 287 287 286 287 287 287 287 287 287 287 287 287 287 287 286 286 286 286 286 286 286 286 286 285 285 287 290 292 294 295 294 294 294 294 294 294 294 293 293 292
326 327 327 328 328 328 326 325 325 323 321 320 319 318 316 313 310 309 307 306 304 303 302 301 301 300 300 301 300 298 297 296 294 293 292 292 295 295 291 289 289 288 288 288 287 287 287 286 286 286 286 287 287 287 287 287 287 286 286 286 286 286 286 286 286 286 286 285 285 284 284 285 286 290 293 294 294 293 293 294 293 293 293 292 292
323 323 324 325 326 326 327 326 325 323 322 321 320 318 316 314 312 309 307 306 304 303 302 301 301 300 300 300 301 300 300 302 300 297 294 294 295 295 291 289 289 288 288 288 287 287 287 286 286 286 286 286 286 286 286 286 286 286 286 286 286 286 286 286 286 286 286 285 285 284 284 284 284 285 287 290 292 293 293 293 293 293 293 293 292
320 320 320 321 321 322 324 324 324 323 321 321 320 317 314 312 310 308 307 306 304 302 301 301 301 301 301 301 300 300 300 301 301 298 296 294 294 294 292 290 290 289 288 287 287 287 286 286 286 285 285 286 286 286 286 286 286 286 286 286 286 286 286 286 286 286 285 285 285 285 284 284 284 284 284 285 289 292 293 292 292 293 293 293 292
319 319 319 318 318 318 319 320 322 322 321 319 318 317 315 313 310 308 308 307 305 303 301 301 301 301 301 301 300 299 299 300 299 298 297 294 294 294 292 289 289 287 287 287 286 286 286 286 286 285 285 285 285 286 286 286 286 286 286 286 286 285 285 285 285 285 285 285 284 284 284 284 283 284 284 285 286 290 292 292 292 292 292 291 291
318 317 317 316 316 316 316 317 318 320 320 318 317 316 315 313 312 310 309 307 305 303 302 301 301 301 301 301 300 298 298 298 298 297 297 296 295 294 293 293 291 288 286 286 286 286 287 287 286 285 285 285 285 285 285 285 286 286 285 285 285 285 285 285 285 285 285 285 284 284 284 284 284 284 285 286 286 287 289 290 290 289 288 288 287
316 315 315 315 314 314 314 314 315 316 317 317 317 316 314 313 312 311 309 308 305 303 302 302 301 302 302 301 300 299 298 298 297 297 296 296 296 294 294 294 295 294 290 288 286 286 287 287 286 286 286 285 285 285 285 285 285 285 285 285 285 285 285 285 285 285 284 284 284 284 283 283 284 284 285 286 286 285 286 286 286 286 286 286 286
315 315 314 314 313 313 313 313 313 313 313 314 314 313 312 311 311 311 310 309 307 305 304 302 302 301 301 300 300 299 299 298 297 296 296 295 295 294 294 293 295 298 297 293 289 287 287 287 287 288 287 286 285 285 284 285 285 285 285 285 285 285 285 285 285 284 284 284 284 284 284 283 284 284 285 285 285 285 285 285 286 286 286 286 285
314 314 314 313 313 312 312 312 312 311 311 311 311 310 308 308 310 310 310 309 307 305 304 303 302 301 300 300 299 299 299 299 297 296 296 296 295 294 294 293 293 296 298 297 295 290 289 288 288 289 289 287 286 285 285 285 284 284 284 284 285 284 284 284 284 284 284 284 284 284 283 283 283 284 284 285 285 285 285 285 286 285 286 286 285
314 313 313 313 312 312 312 311 311 311 311 310 309 309 307 307 309 310 310 309 307 306 305 303 302 302 301 300 300 300 299 299 298 297 296 296 295 294 293 293 292 294 296 297 297 295 292 291 290 290 290 288 287 285 285 284 284 284 284 284 284 284 284 284 284 284 284 284 284 284 284 285 285 284 284 284 285 285 285 285 285 285 285 285 284
313 312 312 312 312 311 311 311 311 310 310 309 309 308 307 307 308 309 309 309 308 307 306 305 304 303 302 302 301 301 300 299 298 297 297 296 295 294 293 293 292 293 294 294 295 295 294 294 294 293 291 289 287 286 285 284 283 283 283 284 284 284 284 284 284 284 284 284 284 283 284 286 287 286 286 286 285 284 285 285 285 285 285 285 285
312 312 312 311 311 311 310 310 310 310 310 309 308 308 308 307 308 309 309 308 308 307 306 306 305 304 303 302 302 301 301 300 298 298 297 296 295 293 293 293 292 292 293 293 293 294 294 293 292 292 291 289 287 286 286 284 283 283 283 283 283 283 283 283 283 284 284 284 284 283 283 284 284 284 285 285 284 284 284 284 284 284 284 285 286
311 311 311 311 310 310 310 310 310 309 309 309 308 308 308 308 308 308 309 308 307 307 306 305 305 304 303 302 301 302 301 300 299 299 298 296 295 294 293 292 292 292 292 292 292 293 293 291 290 289 289 287 286 286 286 285 284 284 283 283 283 283 283 283 283 284 284 284 283 283 283 283 283 283 283 283 283 284 284 284 285 285 285 285 285
311 310 310 310 310 310 309 309 309 309 309 308 308 308 308 308 307 308 308 308 308 307 306 306 305 304 303 302 302 302 302 300 299 298 298 297 295 294 293 293 292 292 292 292 292 293 293 291 288 288 287 286 286 286 286 285 285 285 284 284 283 283 283 283 283 284 284 284 283 283 283 283 283 283 283 283 283 283 283 284 285 285 284 284 284
310 310 310 309 309 309 309 309 309 308 308 308 308 308 308 308 307 307 308 308 308 307 307 306 306 305 304 303 303 302 302 300 299 298 297 296 295 295 294 293 292 292 292 292 291 292 293 291 288 286 286 285 285 285 285 285 284 284 284 284 283 283 283 283 283 284 284 284 283 283 283 283 283 283 283 283 282 283 283 283 283 284 284 284 284
309 309 309 309 308 308 308 308 308 308 308 308 308 308 308 307 307 307 307 307 307 307 307 306 306 305 304 304 303 303 302 300 300 299 298 297 296 295 294 293 293 292 292 292 291 291 291 290 287 285 285 284 284 284 285 284 283 283 283 284 284 283 283 283 284 285 285 284 283 283 283 283 283 283 283 283 282 283 283 283 283 283 284 284 283
309 308 308 308 308 308 308 308 308 308 308 308 307 308 308 307 307 308 307 307 306 306 306 306 306 305 305 304 304 303 302 301 300 300 299 298 296 296 295 294 293 293 292 291 291 290 290 289 287 285 285 285 285 284 284 284 283 283 283 283 283 283 283 284 285 285 284 283 283 283 283 283 283 283 283 282 283 283 283 283 283 284 284 283 282
307 307 307 307 307 307 307 307 307 307 307 307 307 307 307 307 307 307 307 307 306 305 305 305 305 305 304 304 304 303 303 302 301 301 299 298 298 296 296 295 294 293 292 291 290 290 289 288 287 287 287 286 285 284 284 283 283 283 283 282 282 282 283 285 285 285 284 284 284 283 282 283 283 283 283 282 282 282 283 284 284 284 283 282 282
306 306 306 306 306 306 306 306 306 306 306 306 306 306 306 306 306 306 306 306 305 305 305 304 304 304 304 304 304 303 303 303 302 301 300 300 298 297 296 295 294 293 292 291 290 289 288 288 288 287 286 285 284 283 283 282 282 282 283 283 283 283 284 285 285 284 284 284 284 283 282 282 282 282 282 282 282 282 282 283 283 283 282 282 281
305 305 305 305 304 305 305 305 305 305 305 305 305 305 305 305 305 305 305 305 305 304 304 304 303 303 303 303 303 303 303 303 303 302 301 301 299 298 297 296 294 293 292 291 290 288 288 288 288 287 285 284 283 283 282 282 282 282 283 283 284 284 284 284 284 284 284 284 284 283 283 283 282 282 282 282 282 282 282 282 282 282 281 281 280
305 305 304 304 304 304 304 304 304 304 304 304 304 304 305 305 305 304 304 304 304 303 303 303 303 302 302 302 302 303 303 303 302 302 301 301 300 299 298 297 295 294 292 291 290 289 288 288 289 287 285 284 284 283 282 283 283 284 284 284 284 284 283 283 283 284 284 284 283 283 283 283 282 282 283 283 283 282 282 282 282 281 281 280 280
305 305 304 304 304 304 304 303 303 303 303 304 304 304 304 304 304 303 303 303 303 303 302 302 302 302 302 302 302 302 302 302 301 301 301 301 300 299 298 297 296 295 294 292 291 290 289 289 289 287 286 286 285 283 283 283 283 284 284 284 284 284 282 282 282 283 284 284 283 283 283 283 283 283 283 283 283 283 282 282 281 281 280 280 279
304 304 304 304 304 303 303 303 303 303 303 303 303 303 303 303 303 303 303 302 302 302 302 301 302 301 301 301 302 302 301 301 301 300 300 300 300 299 298 297 296 295 295 294 292 291 290 289 289 288 287 287 286 284 283 283 284 285 285 284 284 284 283 283 282 283 284 285 284 283 283 283 283 282 283 283 283 282 282 281 281 280 280 279 279
303 303 303 303 303 303 302 302 302 302 302 302 301 301 301 302 302 302 302 301 301 301 301 301 301 301 301 301 301 301 301 300 300 300 299 299 299 298 297 296 295 295 294 294 293 292 291 290 289 288 288 287 286 284 284 285 285 285 284 283 283 283 283 283 283 283 284 285 284 283 282 283 283 282 283 283 283 282 281 281 280 280 279 279 279
302 302 302 302 302 302 301 301 302 301 301 301 300 300 300 301 301 301 301 301 300 300 300 300 300 300 300 300 300 300 300 299 299 299 299 298 297 296 295 295 294 294 293 293 292 292 291 290 289 289 288 288 287 285 285 287 289 288 286 285 284 284 284 283 283 284 284 285 285 283 281 282 283 282 283 283 282 281 280 280 280 279 279 279 279
300 300 300 300 300 300 300 300 300 300 300 300 300 300 300 300 300 300 300 300 300 300 299 299 299 299 299 299 299 299 299 299 299 298 298 298 297 295 294 294 293 293 292 292 292 291 290 290 289 289 288 288 287 287 288 290 293 292 291 290 288 285 283 283 283 283 283 283 284 283 282 282 282 282 282 282 281 280 280 279 279 279 278 278 279
299 299 299 299 299 299 299 299 298 299 300 299 299 299 299 299 299 299 299 299 299 299 299 299 298 298 298 298 298 298 298 298 298 297 297 297 296 294 293 293 292 292 291 291 291 290 289 289 288 288 288 288 288 290 292 294 294 292 290 288 286 284 283 282 281 281 282 282 282 282 282 282 282 282 281 281 280 279 279 279 279 279 278 278 279
298 297 297 298 297 297 297 297 297 298 299 298 298 298 298 298 298 298 298 298 298 298 298 298 298 298 298 297 297 297 297 297 297 297 296 296 294 293 292 292 291 290 290 289 289 288 288 288 288 287 287 288 289 291 293 294 293 291 288 285 283 283 283 281 280 280 281 281 281 281 281 280 280 280 280 279 279 279 279 278 279 278 278 278 278
297 297 297 296 297 297 297 297 297 297 298 298 297 297 297 297 297 297 298 297 297 297 297 297 297 297 297 297 297 296 296 296 296 296 295 295 294 292 291 291 290 289 289 288 287 286 287 287 287 287 287 288 289 290 292 292 292 291 290 288 286 284 282 281 281 279 279 280 281 281 280 279 279 279 278 278 278 278 278 278 278 278 278 277 277
297 297 297 296 297 297 297 297 297 296 297 297 296 296 296 296 296 296 297 296 296 296 296 296 296 296 296 296 296 295 295 295 295 295 295 294 293 292 291 290 289 289 288 287 286 286 286 286 287 287 287 288 288 289 289 290 291 291 291 291 289 285 282 282 281 280 279 280 281 281 279 279 279 279 278 277 277 278 277 278 278 278 277 277 276
Wind_Speed
15 15 14 14 15 15 15 15 15 16 17 17 16 16 16 17 17 17 17 17 17 18 20 21 22 22 23 24 24 23 23 23 23 23 22 22 21 20 20 20 19 17 17 17 16 16 16 15 15 15 15 15 15 15 15 15 15 15 15 15 16 16 16 16 16 16 16 16 17 17 17 18 18 18 18 18 19 19 20 21 21 21 21 21 20
16 16 16 16 16 16 16 16 16 16 17 17 17 16 16 17 18 18 19 19 19 20 21 21 22 22 23 24 23 23 23 23 23 23 23 24 24 22 20 19 18 17 17 16 16 15 14 14 14 14 14 14 15 15 14 14 15 15 15 15 14 15 14 14 15 15 15 15 16 16 16 16 17 17 17 17 18 18 19 20 20 20 20 20 20
17 17 17 17 17 17 17 17 17 17 17 17 17 17 17 17 18 19 19 20 20 21 22 22 22 22 22 23 23 23 23 23 23 23 24 24 24 23 21 19 19 18 17 16 15 14 14 14 13 14 14 14 14 14 14 14 14 14 14 14 14 13 14 13 13 14 14 14 14 15 15 15 15 15 16 16 17 17 18 19 19 19 19 19 19
17 17 18 18 18 18 18 18 18 18 18 18 18 18 18 18 18 19 19 20 21 22 22 23 23 23 22 22 22 22 23 24 24 24 24 24 23 22 21 21 20 19 17 16 15 15 15 14 13 13 14 13 13 13 13 13 13 13 13 12 12 12 12 13 13 13 13 13 13 13 13 14 14 14 15 15 16 16 17 18 18 18 18 18 18
18 18 19 19 19 19 19 19 19 19 20 19 19 19 19 19 19 20 20 21 22 22 23 23 23 23 22 22 21 22 23 23 24 24 23 23 22 22 20 21 21 21 19 17 16 15 15 14 13 12 12 12 12 12 12 12 12 12 11 11 11 11 11 11 11 11 11 12 12 12 12 13 13 13 14 14 15 15 16 17 17 17 17 17 17
20 19 19 20 20 20 20 20 20 20 21 21 20 20 20 20 20 21 21 22 22 23 24 24 24 23 22 22 22 22 22 22 23 23 23 23 22 21 21 21 22 22 21 20 18 16 13 12 13 12 12 12 11 11 11 11 11 11 11 11 11 10 10 10 10 10 10 10 11 11 11 12 12 12 13 13 14 15 15 15 16 16 16 17 17
22 21 21 21 20 20 20 21 21 21 22 22 21 21 21 21 21 22 23 23 23 24 24 24 24 24 23 23 23 23 23 22 22 22 23 23 23 22 21 21 21 20 20 21 20 18 15 13 13 12 12 12 11 11 11 11 11 11 10 10 10 10 10 9 9 9 9 9 10 10 10 10 11 11 11 12 13 13 14 14 15 15 16 16 16
24 23 23 22 21 20 20 21 22 23 23 23 23 22 22 22 22 23 24 25 25 25 25 25 25 25 24 24 24 24 24 23 23 24 24 24 23 22 21 21 20 18 18 20 21 20 19 17 15 13 12 12 11 11 11 11 11 10 10 9 9 9 9 9 8 9 8 8 8 9 9 8 9 10 10 10 11 12 12 13 14 14 15 15 15
27 25 25 24 23 21 20 21 23 24 24 24 24 23 23 24 24 24 25 26 27 27 27 26 25 25 25 25 24 24 24 25 25 25 25 24 24 22 22 20 18 17 18 20 22 22 21 20 19 17 15 13 12 11 11 11 11 10 10 9 9 9 8 8 8 8 8 8 7 7 8 8 8 8 8 9 10 10 11 12 12 14 14 14 15
30 28 26 26 25 24 23 24 25 26 27 26 25 25 25 25 26 27 26 27 28 29 28 27 27 26 25 25 25 25 25 26 26 26 25 25 24 23 22 20 18 17 19 21 23 23 22 21 20 20 19 18 15 13 12 11 10 9 9 9 9 8 8 7 7 7 7 7 7 6 6 6 6 7 7 8 8 9 10 11 11 13 13 13 14
32 31 29 29 28 28 27 27 27 28 29 28 27 27 27 27 28 28 28 28 29 30 30 29 27 26 25 24 24 26 26 26 26 26 26 25 25 23 22 20 19 19 20 23 24 24 23 22 22 22 21 20 19 18 16 14 12 10 9 9 8 8 8 7 6 6 6 6 6 5 5 5 5 6 6 7 7 7 9 9 10 11 12 12 14
33 34 35 33 31 31 31 30 30 30 30 30 30 30 30 31 30 30 30 29 28 30 31 31 28 24 22 22 22 22 23 24 24 25 25 25 25 24 22 21 20 20 22 24 25 24 24 23 23 23 22 21 21 20 19 18 16 12 10 10 9 8 8 7 7 6 6 6 5 5 4 4 4 5 5 5 5 6 7 8 9 10 11 11 13
35 36 37 36 35 34 34 34 33 33 34 33 33 33 32 32 31 30 31 31 30 30 32 31 27 20 16 17 18 19 20 21 22 24 24 25 25 24 23 22 22 22 23 25 26 26 26 25 24 24 23 22 22 21 20 20 18 15 12 10 10 9 8 8 7 6 6 5 5 4 3 4 4 3 4 4 4 5 7 7 8 10 10 11 12
38 38 38 38 38 37 37 38 38 38 37 35 34 34 34 34 33 32 31 32 31 31 33 31 25 20 16 12 10 14 17 19 21 23 24 24 25 25 25 24 24 24 25 26 27 27 27 27 26 24 24 23 22 22 21 21 20 19 17 14 11 10 9 8 7 6 6 5 4 4 3 3 2 2 2 3 3 4 6 6 8 9 10 11 12
38 37 38 37 37 39 40 41 41 41 39 38 37 37 37 36 36 35 33 31 30 32 37 34 26 22 15 7 4 5 10 17 22 25 25 25 25 26 26 26 26 25 27 28 28 29 29 28 27 24 25 25 23 22 22 21 21 20 19 18 14 12 11 10 8 7 6 5 4 3 3 3 2 1 1 2 2 3 4 5 7 8 9 10 11
37 37 38 36 35 39 42 42 44 43 42 41 40 40 40 39 39 38 36 34 31 33 39 38 32 25 14 4 2 2 5 11 19 26 26 25 26 26 27 27 27 28 29 29 29 30 30 29 27 25 26 26 23 24 23 22 23 21 20 20 18 15 12 11 10 8 6 5 5 4 4 4 3 1 1 0 1 2 3 4 6 7 8 9 9
34 36 38 36 33 37 40 41 43 43 42 42 42 41 41 42 42 41 39 38 35 34 38 39 36 34 24 10 5 2 4 5 9 19 25 28 28 28 28 28 28 29 30 30 31 31 31 30 28 26 28 27 24 25 24 24 25 22 21 21 20 17 14 12 11 9 8 7 6 5 5 4 4 3 1 0 1 1 2 3 4 5 6 7 8
34 33 33 32 33 39 42 42 42 43 43 41 40 39 39 40 41 42 43 43 39 32 35 40 37 34 32 23 15 10 8 9 6 5 16 26 30 29 29 29 29 30 31 31 32 33 32 30 29 28 29 28 26 26 25 27 27 23 22 23 21 18 17 15 12 10 10 9 7 6 5 5 5 4 2 1 1 1 1 2 3 3 4 6 8
36 35 35 35 36 39 42 43 43 43 43 42 40 39 39 40 41 43 45 43 40 35 37 40 36 35 36 30 23 17 13 14 9 3 4 14 26 31 32 30 30 31 32 33 32 33 33 32 30 30 30 29 27 28 27 28 29 26 24 24 22 20 18 17 15 12 11 11 9 7 7 6 5 4 3 2 2 1 1 1 1 2 3 6 8
34 34 35 36 37 38 39 40 42 43 44 45 44 43 42 42 42 42 43 41 41 40 39 38 37 39 40 34 28 23 19 18 17 14 6 3 12 23 30 33 33 34 34 34 35 34 34 33 32 31 30 30 29 28 29 29 30 28 26 25 24 22 20 18 16 14 12 12 10 9 8 7 6 5 4 3 3 3 2 1 1 1 3 6 7
37 36 34 33 33 36 38 39 41 42 44 45 45 45 43 43 44 43 43 44 45 43 38 39 44 43 39 38 34 26 21 18 18 19 12 6 5 9 20 26 29 38 41 37 37 37 35 34 33 33 31 31 31 30 30 30 29 28 27 26 25 23 21 19 17 15 14 12 12 12 10 9 8 6 5 5 5 4 3 2 2 2 3 5 6
38 38 37 35 33 32 34 35 37 38 40 41 42 42 42 42 44 44 45 46 47 45 41 39 44 44 40 41 38 28 20 16 18 21 17 13 9 7 17 23 22 33 43 43 41 38 38 37 35 35 34 33 33 33 32 31 30 29 28 27 26 24 22 21 19 17 15 14 14 14 13 12 11 9 7 6 6 5 4 3 3 2 3 4 6
36 37 37 38 36 34 32 31 33 36 39 41 42 43 43 44 43 43 45 47 47 47 45 40 38 38 36 36 38 37 32 27 29 32 24 17 13 8 17 26 24 26 33 40 45 42 39 39 39 37 36 36 35 35 34 33 32 31 29 28 27 26 24 22 20 18 17 15 15 15 15 14 14 13 10 8 7 6 6 5 5 4 3 4 5
34 35 36 36 37 37 36 35 34 36 39 41 42 44 44 44 44 44 46 47 48 46 46 46 43 41 39 39 39 40 41 38 35 35 33 29 21 11 13 18 18 21 27 30 37 43 42 41 41 40 38 37 37 37 36 35 34 32 31 30 28 27 25 23 22 20 17 17 16 16 16 15 16 16 13 10 8 8 7 7 7 6 5 5 5
32 34 34 34 35 37 38 39 37 36 36 38 41 41 42 41 41 44 45 47 48 47 46 48 48 45 43 43 41 38 40 40 34 33 35 32 23 14 12 14 11 15 22 23 27 36 42 43 43 41 40 39 38 39 38 36 36 35 32 31 30 28 26 24 22 21 18 18 18 18 17 16 16 17 15 13 11 9 9 9 8 7 6 5 6
33 33 32 32 33 35 36 39 40 39 35 34 36 38 40 41 41 42 45 47 48 48 47 48 48 46 43 41 40 39 40 39 36 35 35 32 28 21 14 12 10 9 13 19 21 24 34 44 47 43 42 42 41 40 40 39 37 36 34 32 31 29 27 25 23 21 19 18 19 18 17 17 17 17 17 16 14 12 10 9 8 7 6 6 7
33 32 31 30 31 32 34 36 39 40 37 34 33 33 36 39 42 43 44 46 46 46 48 48 48 48 47 43 40 39 40 39 38 38 38 38 37 33 22 11 7 7 8 13 18 25 32 39 45 48 47 45 46 44 42 42 39 37 36 34 32 31 29 27 24 22 20 19 20 19 18 18 18 19 18 17 16 14 12 10 9 9 9 10 11
32 31 30 30 30 30 32 33 35 38 39 38 36 33 33 36 40 43 45 45 44 45 46 47 48 49 49 47 43 42 42 41 40 40 41 40 37 36 32 23 13 6 5 7 12 23 33 34 37 48 53 50 49 48 45 43 41 39 37 36 34 32 30 28 25 23 22 21 21 20 19 20 20 20 20 18 17 16 15 13 12 12 12 13 13
32 31 30 30 30 30 30 31 32 34 36 38 38 36 34 35 39 42 44 45 44 45 46 46 48 47 47 46 45 44 43 41 41 41 41 41 39 37 37 35 25 12 6 7 8 16 29 35 37 43 52 55 52 49 48 46 44 41 39 38 36 34 32 29 27 25 23 23 23 21 21 21 21 21 21 20 18 17 16 15 14 13 14 15 14
32 31 31 31 30 30 30 31 31 32 33 34 36 35 33 36 40 42 44 43 43 44 45 45 47 46 45 45 44 44 44 42 43 43 42 41 42 42 40 39 35 25 15 10 11 19 26 34 40 42 47 54 56 53 51 49 46 43 41 40 38 36 33 31 29 27 25 25 24 23 23 23 23 23 21 20 19 18 17 16 15 15 15 16 15
32 32 32 32 31 31 31 31 31 31 32 33 33 33 32 34 39 41 42 42 41 42 43 43 44 44 44 45 44 44 45 45 43 42 42 43 43 44 43 41 39 38 33 19 11 19 27 31 40 44 44 49 55 55 53 51 49 45 43 41 39 37 35 33 31 29 27 27 26 25 24 22 22 22 22 21 20 19 18 18 17 17 17 17 16
32 32 32 32 32 31 31 31 32 32 32 32 33 32 31 33 37 39 40 41 42 43 44 44 44 44 45 46 47 47 46 45 44 42 42 43 44 44 43 43 43 42 41 29 15 18 28 33 35 39 42 45 49 53 54 52 50 47 44 42 40 37 35 34 32 30 28 28 27 27 25 22 20 21 21 21 20 20 20 19 19 18 17 17 16
32 31 32 32 32 31 31 31 32 32 33 32 32 31 31 33 36 38 39 39 41 42 43 43 44 44 46 46 46 47 46 44 43 42 42 42 42 42 42 42 44 43 41 36 26 22 26 30 30 33 38 42 44 49 53 51 50 48 45 42 41 38 37 35 32 30 29 28 27 27 26 23 23 23 22 21 22 22 21 21 19 18 17 17 17
32 32 32 32 32 31 31 32 33 33 33 33 32 31 31 33 35 37 38 39 40 41 41 42 43 44 44 44 44 44 44 44 43 42 42 41 40 41 42 42 43 44 43 40 34 26 23 26 28 29 32 38 42 46 50 51 51 50 48 46 44 41 38 36 33 30 29 28 28 27 26 25 25 25 24 24 24 23 23 21 18 17 19 19 18
32 32 32 32 32 32 32 33 33 33 33 33 32 32 32 33 34 36 38 39 40 41 42 43 43 43 43 43 44 44 43 42 43 42 42 42 41 41 43 44 45 45 45 44 40 33 26 23 26 28 31 36 39 42 47 49 49 50 49 48 46 43 40 36 33 32 30 28 28 27 26 25 25 25 25 25 25 24 24 22 19 19 21 21 19
31 32 32 32 32 32 33 34 34 34 34 33 33 33 33 33 35 36 37 39 40 42 43 43 43 43 42 43 43 43 43 42 42 42 42 42 42 43 44 44 45 46 45 45 44 40 32 23 23 28 30 32 33 35 40 42 42 45 46 46 45 43 41 37 34 32 31 28 28 27 26 25 26 26 26 26 25 25 25 23 22 22 22 20 19
31 31 32 32 32 33 34 35 36 35 35 34 34 34 34 34 36 37 38 39 40 42 43 44 44 43 43 44 44 43 42 43 43 42 42 43 43 44 44 43 43 44 43 42 41 39 32 22 19 22 23 25 27 28 34 38 36 36 38 40 41 41 39 37 34 34 31 29 28 28 27 26 26 26 26 26 25 25 25 24 23 23 21 20 19
30 31 32 32 33 34 35 35 36 36 36 35 35 35 36 36 37 38 39 39 40 41 42 43 44 44 44 44 44 44 43 43 44 43 42 43 43 44 45 44 43 43 41 39 36 33 29 23 18 19 21 25 27 28 33 37 36 35 34 34 35 37 37 36 35 35 32 30 29 29 28 27 27 27 26 26 24 24 24 23 22 23 22 20 19
29 30 31 32 32 33 35 36 36 36 36 36 36 36 37 37 37 38 39 40 40 41 42 43 43 43 44 45 44 44 45 45 46 45 43 43 43 45 46 45 43 40 39 37 33 32 30 25 22 23 26 29 30 28 31 34 34 35 37 35 32 33 36 37 38 36 33 31 30 30 29 28 27 26 26 25 24 24 23 21 21 22 22 21 19
28 28 29 30 31 32 34 35 36 36 36 36 37 37 38 38 38 39 40 40 41 41 42 42 43 43 44 45 45 46 47 47 47 46 45 44 44 44 45 44 42 39 37 35 32 32 32 29 27 28 28 28 28 27 29 32 31 32 37 39 36 35 37 38 38 36 33 32 31 30 29 28 27 27 26 26 26 25 24 23 23 24 23 20 18
27 27 28 28 30 32 33 35 35 36 36 37 37 37 38 38 39 39 40 40 41 41 42 42 42 43 43 45 46 47 47 48 48 48 48 47 46 45 44 42 40 39 37 35 33 32 31 30 28 27 25 26 30 32 35 37 37 36 38 38 35 35 36 36 36 36 34 31 30 29 29 29 28 27 27 28 27 25 24 25 25 24 22 19 17
26 26 27 28 29 31 33 34 35 35 36 37 38 37 38 38 39 39 40 40 41 41 41 41 41 42 43 44 45 46 47 47 48 48 49 49 49 48 47 43 41 41 39 36 34 34 32 29 29 28 26 27 32 39 42 42 40 38 38 37 32 29 29 28 28 32 34 31 29 29 29 28 28 28 28 28 26 24 24 25 24 22 20 18 16
25 25 26 28 29 31 32 34 35 36 37 38 37 37 37 37 38 39 40 40 40 41 41 41 42 42 42 43 43 44 45 46 46 47 48 49 50 50 49 46 43 43 42 39 36 35 33 31 31 31 30 30 33 37 38 37 36 36 37 37 33 29 28 23 19 22 30 33 29 28 29 28 27 27 27 27 25 24 24 23 21 20 19 17 16
25 25 26 28 29 30 31 33 34 36 37 37 37 36 36 36 36 38 40 41 41 41 41 41 42 41 41 41 42 43 43 44 44 45 46 47 49 49 49 48 46 46 46 45 42 39 37 34 32 32 34 32 31 34 35 35 35 34 34 35 34 32 30 26 20 19 24 29 28 26 28 28 26 26 26 26 24 22 21 20 19 19 18 16 15
25 26 27 28 29 30 31 33 35 36 37 36 35 34 34 35 35 36 39 41 42 42 42 41 41 41 40 40 40 41 41 41 41 42 42 43 45 45 46 46 47 48 49 49 48 45 43 39 34 34 37 34 32 35 39 39 38 34 30 30 31 31 29 28 27 24 21 22 26 27 27 27 26 25 25 25 22 20 20 19 19 18 17 15 13
25 26 27 28 29 30 30 32 34 36 36 35 33 32 32 33 33 35 38 40 42 43 43 42 41 41 40 40 40 41 40 38 38 38 39 40 40 40 41 43 46 48 48 49 49 47 44 41 38 40 41 39 37 40 42 42 41 38 34 33 34 34 32 29 27 25 22 20 22 23 22 24 24 23 23 23 21 20 19 18 17 16 15 14 12
25 26 27 28 29 30 30 31 33 36 36 34 32 31 31 31 32 33 37 39 41 43 43 42 41 42 41 41 41 42 41 39 38 36 37 38 38 38 38 40 42 44 46 47 48 46 44 42 41 40 39 38 38 41 44 43 42 40 38 37 37 35 30 25 22 22 22 21 21 20 18 19 21 21 22 22 19 18 18 17 16 15 15 13 11
26 27 27 28 29 30 30 30 32 36 37 33 30 30 30 30 31 32 35 38 40 42 42 41 41 42 42 41 41 41 41 40 39 37 36 37 37 37 37 38 38 40 42 44 44 43 42 40 38 36 36 37 38 40 43 43 42 41 37 32 31 30 27 22 19 20 22 22 23 23 19 16 18 19 19 19 18 17 17 16 15 15 14 12 11
28 28 28 29 29 29 30 30 31 35 37 33 30 30 29 29 30 32 34 36 38 40 41 41 41 41 41 40 39 40 40 40 38 36 35 34 35 36 35 35 34 35 37 37 35 36 37 38 39 38 38 39 40 40 42 44 45 44 38 30 30 32 28 19 16 19 24 24 25 26 22 16 16 18 17 16 17 17 16 16 15 14 14 13 11
30 30 30 31 32 31 31 32 31 34 37 35 31 30 30 28 29 31 33 35 37 38 39 40 41 40 40 39 38 38 40 40 38 36 33 32 33 34 34 32 32 33 33 30 29 31 34 37 39 38 36 38 41 41 42 45 46 45 40 35 36 36 29 20 16 17 19 22 27 27 21 16 16 18 17 14 14 16 17 15 15 16 16 15 13
32 33 32 32 35 35 33 34 33 33 36 37 33 30 30 28 28 30 32 34 36 37 36 38 39 38 38 39 38 37 38 39 37 35 33 31 32 34 33 30 30 33 31 29 29 32 35 36 37 36 35 36 39 40 41 42 44 43 40 39 40 39 31 24 22 16 10 15 27 29 23 18 18 19 19 13 7 10 15 15 15 16 16 15 14
Wind_Direction
204 202 202 200 200 201 201 198 195 191 187 189 191 187 184 182 181 179 178 177 174 172 171 168 166 166 164 160 156 155 152 149 145 140 137 133 131 129 126 122 119 118 116 115 114 114 114 114 113 111 108 107 106 105 103 102 99 98 96 93 91 89 88 87 86 85 83 82 80 78 76 75 73 73 72 71 71 68 65 63 61 58 55 53 52
211 209 208 205 203 203 203 201 198 196 194 193 194 194 190 187 186 184 181 180 178 176 174 173 169 167 166 163 160 158 157 153 148 144 141 137 135 134 131 127 125 123 123 122 120 120 120 120 119 116 113 112 111 109 108 106 103 101 99 97 95 93 91 89 87 85 84 83 80 78 76 75 74 73 73 73 72 67 65 64 62 58 54 53 51
218 216 213 210 208 205 205 204 202 200 199 199 197 197 196 192 190 188 186 184 181 178 177 176 172 169 168 166 163 161 160 157 153 150 147 145 143 142 138 135 133 131 129 129 128 129 129 128 126 124 121 119 116 114 112 109 107 105 102 101 98 96 94 90 89 87 85 83 80 79 77 76 75 74 74 73 71 66 64 64 62 57 52 51 50
221 221 217 213 212 209 207 206 205 203 202 203 200 198 198 194 192 191 189 188 185 181 179 178 174 171 170 169 170 168 164 161 158 156 155 154 151 150 146 142 140 138 135 133 133 135 135 132 131 131 128 126 122 119 117 114 111 109 107 105 101 99 97 94 91 89 86 83 80 80 78 77 76 74 73 72 70 65 64 64 59 55 51 50 48
225 223 221 218 216 213 211 209 208 206 203 203 203 200 198 195 193 192 191 190 188 183 180 180 177 175 175 176 176 174 171 166 164 162 161 160 159 157 151 145 143 141 140 139 139 139 139 137 135 135 133 132 130 125 123 121 118 115 112 110 107 104 101 98 95 91 88 85 82 80 79 78 76 73 72 70 68 66 64 62 57 53 50 48 47
227 226 222 219 219 216 215 213 210 209 206 205 205 202 200 198 195 192 191 191 189 186 183 182 180 179 180 181 181 179 177 174 171 169 167 165 163 162 156 152 150 149 147 147 148 147 147 147 144 141 140 139 137 133 132 129 126 123 121 117 114 111 108 104 100 96 91 88 86 82 80 77 75 72 69 68 66 65 64 60 55 52 49 47 45
227 227 224 220 220 220 219 218 214 211 209 207 206 204 202 200 198 194 190 191 191 187 185 185 183 181 181 182 183 182 180 179 176 173 171 170 169 168 165 162 161 160 159 157 156 154 155 158 153 149 148 147 145 141 140 138 135 130 127 124 120 116 113 111 106 101 96 93 89 83 81 77 74 71 67 66 65 64 63 57 52 50 46 45 42
228 227 226 222 221 223 225 223 220 215 212 210 208 206 205 202 201 200 195 190 190 187 185 186 184 181 181 182 183 184 182 181 181 178 175 174 175 176 174 172 172 174 173 169 165 162 162 163 158 156 155 154 152 149 147 145 142 138 135 131 127 124 119 118 115 110 103 97 93 86 82 79 75 72 68 66 64 64 60 54 50 46 44 42 39
228 228 228 226 223 226 230 229 225 220 215 212 210 209 208 205 202 203 202 196 191 188 185 184 184 182 181 182 184 185 185 185 185 183 181 181 182 182 181 182 183 184 182 178 173 170 171 167 163 164 163 161 159 157 154 150 147 143 141 138 133 131 128 127 124 119 110 99 97 92 84 81 76 70 69 67 63 63 56 51 49 43 42 41 36
227 227 229 230 229 228 230 230 227 222 217 214 212 211 211 210 206 202 203 201 195 191 188 185 184 183 182 183 185 185 187 189 188 187 187 188 188 188 188 190 191 191 189 185 180 177 178 173 170 172 168 165 165 165 164 160 157 152 149 147 143 139 137 136 134 126 117 107 102 97 88 81 76 70 68 65 62 62 53 47 47 41 40 40 34
230 229 228 229 230 229 231 229 225 221 217 214 212 211 211 211 210 203 200 201 200 196 191 187 184 184 184 185 187 189 190 190 190 192 193 193 193 194 195 196 197 197 195 192 188 185 183 179 178 179 175 172 171 171 172 168 163 163 161 155 154 153 146 144 143 135 125 115 107 99 92 82 75 72 64 59 59 57 48 43 45 39 37 37 32
230 230 227 226 227 229 230 228 225 223 219 216 215 215 214 210 208 205 198 195 197 196 193 189 182 179 182 187 189 193 195 195 194 196 197 198 199 200 201 202 202 202 201 197 194 191 188 185 185 185 182 180 180 177 176 172 164 165 170 167 164 164 160 156 151 144 135 124 115 103 93 83 74 67 56 52 54 49 41 39 41 37 34 33 29
229 229 227 225 226 227 228 227 223 222 222 223 223 220 216 210 206 204 202 196 193 194 192 187 178 170 176 190 196 199 201 203 202 201 203 204 204 207 207 207 207 205 204 201 198 196 193 190 190 191 188 186 187 184 181 176 169 166 172 178 177 172 171 171 163 153 145 139 132 115 99 87 70 59 52 46 44 39 34 34 37 34 30 29 26
227 228 227 225 226 225 226 226 224 221 221 222 222 219 214 210 205 202 201 201 198 194 191 185 179 176 175 179 199 213 215 216 212 209 211 210 209 211 212 211 210 208 206 204 202 200 198 196 194 195 195 191 191 190 188 185 178 175 176 180 183 180 180 178 174 168 156 153 157 143 128 108 73 53 51 41 35 32 28 29 32 30 27 24 23
228 228 226 225 228 228 227 227 225 223 219 216 216 215 212 209 208 205 200 199 202 200 196 192 185 175 162 166 195 213 234 233 224 218 216 216 215 215 214 214 213 211 209 208 206 204 202 200 199 202 201 197 197 197 194 192 189 187 182 178 179 180 183 183 177 179 176 173 180 176 169 155 120 76 59 39 28 26 22 26 29 26 25 22 21
230 232 230 228 229 229 227 226 225 223 220 216 213 213 213 210 210 208 203 197 199 202 201 198 195 183 157 114 110 135 248 237 224 223 222 220 220 219 218 216 215 213 212 211 210 208 205 203 204 207 205 203 205 204 202 200 196 194 191 184 182 181 181 184 182 182 183 188 198 197 193 186 168 149 108 43 11 20 16 23 27 23 21 20 20
230 231 230 230 234 232 228 227 225 221 218 215 214 214 213 212 211 208 206 204 202 203 202 200 204 201 186 164 136 175 241 199 203 226 227 225 224 222 222 220 218 217 217 217 214 211 208 208 210 210 207 208 210 209 208 206 200 200 200 194 193 194 190 184 185 188 186 189 203 206 203 199 188 180 169 181 320 5 15 21 21 19 20 20 17
239 237 234 238 245 240 234 230 227 223 220 216 216 215 213 213 213 211 211 211 206 202 203 204 207 208 202 199 200 202 193 159 149 232 231 229 228 225 225 224 223 222 221 220 217 214 213 213 215 212 209 210 211 211 212 209 206 205 205 201 202 207 206 196 191 194 195 193 199 207 209 208 201 195 191 201 254 326 354 15 18 22 27 18 8
238 240 244 246 245 237 232 230 228 227 224 221 220 221 220 219 219 218 216 213 207 204 207 206 207 211 211 210 211 212 200 181 177 172 218 232 229 226 227 226 226 226 224 223 220 219 219 218 218 214 212 212 211 212 211 209 208 208 208 206 208 214 216 212 210 209 208 204 200 204 212 213 205 198 198 212 231 256 281 308 14 25 12 1 358
240 241 242 242 241 237 234 233 231 232 230 228 227 227 226 224 221 220 217 212 210 211 211 205 205 213 213 211 215 217 209 198 199 200 186 223 225 225 228 227 229 231 228 226 224 222 223 223 221 218 216 214 212 212 210 208 208 210 210 210 214 218 219 220 222 223 222 219 211 204 207 211 208 203 202 214 230 240 244 240 278 333 346 351 354
245 246 245 242 240 236 231 229 229 228 228 227 227 227 228 227 224 221 217 216 216 217 217 211 210 213 211 211 215 216 212 207 207 207 207 215 210 215 220 221 229 233 231 229 226 224 223 224 223 221 219 217 215 213 211 209 208 209 211 212 215 218 220 222 224 226 227 227 223 215 209 207 205 203 207 216 225 232 234 231 248 297 333 348 348
241 243 245 245 245 239 232 231 231 231 230 229 228 228 228 227 226 224 221 219 219 219 221 220 219 218 214 210 208 207 206 206 208 208 210 219 226 224 209 206 219 230 229 228 227 224 222 222 222 221 220 219 218 216 214 212 211 210 211 213 216 218 220 223 224 227 228 227 227 224 220 215 210 203 202 216 224 226 232 235 245 271 310 335 337
242 241 242 244 247 249 247 246 245 243 241 239 237 237 235 231 229 227 224 222 222 221 222 224 225 225 223 217 210 207 206 208 211 207 205 210 218 225 211 208 216 226 228 229 227 225 222 221 221 221 220 220 220 218 217 215 213 213 213 214 217 218 220 223 223 226 228 227 226 226 224 222 219 211 201 206 217 224 232 238 247 257 279 314 324
244 244 244 245 247 249 252 253 251 246 244 243 242 241 238 234 229 227 225 225 225 224 222 223 225 226 226 224 221 218 216 218 218 211 210 213 213 215 208 207 218 228 229 231 229 226 224 222 221 221 220 220 221 221 219 218 216 214 215 215 217 219 221 222 223 225 226 226 226 225 222 222 223 221 215 209 208 218 230 236 245 251 264 295 315
246 246 247 248 247 248 249 251 251 251 248 247 246 242 237 232 228 226 226 226 226 225 224 225 226 226 227 227 228 227 225 226 225 219 216 215 214 218 207 199 216 231 228 229 230 228 225 224 223 221 220 220 221 222 221 219 218 216 216 216 217 219 221 221 224 227 226 226 227 224 219 220 221 222 221 217 210 215 228 236 245 252 262 285 307
253 253 254 253 252 250 249 248 250 253 253 251 248 244 239 235 232 230 230 229 228 226 226 228 229 229 229 231 233 233 232 230 228 225 220 214 213 213 199 195 221 232 226 227 228 227 227 226 223 221 221 221 221 222 222 220 219 218 216 217 217 218 220 221 224 228 227 227 228 224 219 221 222 220 220 220 216 215 223 236 246 252 261 273 286
260 261 261 258 256 254 252 250 249 251 253 254 252 249 245 241 237 236 235 233 231 228 228 230 231 231 230 232 235 235 235 233 230 228 224 220 219 215 202 190 217 227 222 226 228 229 229 228 225 221 220 220 220 221 222 221 220 218 217 216 217 218 219 220 223 226 227 228 229 225 221 222 222 220 221 223 223 221 225 233 241 249 261 270 276
264 263 263 260 258 256 254 253 251 251 252 253 255 255 253 248 242 239 237 235 232 231 231 232 232 232 231 232 235 236 236 235 233 230 227 226 224 220 212 205 206 216 220 223 229 234 233 229 226 224 221 220 220 220 220 221 220 218 217 216 217 218 218 219 222 224 225 227 228 226 224 224 223 222 223 226 226 226 228 233 240 250 263 272 277
264 264 264 262 260 258 256 255 254 253 253 253 254 257 260 256 248 241 238 236 234 233 233 233 234 234 233 233 234 235 237 237 235 232 230 229 227 224 221 215 211 210 218 225 223 229 231 226 224 225 223 221 220 219 218 220 219 217 216 217 217 217 217 218 221 222 223 226 228 226 226 227 226 225 225 227 228 228 231 236 244 252 262 270 274
265 265 264 263 261 259 257 257 256 255 254 254 254 257 262 259 251 244 241 237 234 234 234 233 234 234 234 235 235 237 239 238 237 235 233 233 230 227 226 222 219 218 222 235 232 226 227 225 224 225 223 221 220 219 218 219 218 217 216 218 218 217 217 218 220 221 221 224 226 226 228 229 230 229 228 229 231 231 234 239 245 252 260 267 272
265 264 264 263 261 260 258 258 258 256 255 255 254 256 260 258 249 244 241 238 235 235 235 234 235 235 235 236 237 238 239 238 237 237 236 235 233 229 227 225 223 222 225 235 248 235 227 227 229 228 225 223 220 218 218 218 218 216 215 218 219 217 217 218 220 219 220 223 224 224 226 228 231 232 231 232 233 234 238 241 246 253 260 265 270
266 265 265 264 262 261 260 259 259 258 257 255 253 255 258 257 250 244 240 237 236 237 237 237 237 237 237 237 238 238 238 237 236 237 238 236 234 231 229 228 226 226 228 231 244 246 235 233 236 232 227 224 220 217 217 217 218 216 215 218 219 217 218 220 220 219 220 223 224 224 224 225 228 231 231 233 235 237 240 243 248 254 260 264 267
268 266 266 265 264 262 261 261 261 259 259 257 255 255 257 256 251 247 242 238 236 237 237 237 236 237 237 237 238 238 237 238 237 238 238 237 234 232 230 230 230 230 229 229 234 245 239 232 232 231 226 221 217 216 215 214 215 214 214 217 219 218 219 221 221 220 222 224 224 225 226 228 231 233 234 236 239 241 242 246 251 255 259 261 264
271 269 269 268 266 264 262 262 261 261 260 259 258 257 257 256 251 247 244 241 239 238 237 237 237 237 237 237 238 239 239 240 240 239 238 236 234 233 231 230 231 232 231 230 234 242 241 230 225 225 222 218 215 214 213 212 213 213 212 214 217 218 219 222 222 221 223 226 226 227 229 230 233 235 236 239 241 243 244 246 247 248 255 261 266
275 273 272 270 267 265 264 263 262 261 260 259 259 259 258 258 253 248 245 242 241 240 239 239 239 238 238 238 239 240 240 241 241 239 239 237 234 233 233 231 232 234 232 230 233 239 242 235 224 220 218 214 213 212 212 212 213 212 211 212 214 215 218 221 221 222 224 226 228 230 231 232 234 235 237 238 240 242 244 244 242 245 253 261 266
278 276 275 272 269 266 264 263 262 261 260 259 259 259 259 260 258 253 250 247 245 243 242 242 242 241 240 240 241 242 241 241 241 240 238 237 234 234 235 234 233 235 234 231 232 235 238 234 218 215 215 210 209 212 211 209 210 212 210 210 212 214 216 218 219 221 224 226 229 231 233 234 235 236 238 239 240 243 245 245 245 249 254 259 264
280 279 276 273 270 267 265 265 264 262 261 260 259 259 260 261 260 257 254 252 250 248 247 247 246 244 243 242 243 243 242 241 241 241 238 237 236 235 236 236 235 236 237 235 233 235 239 236 214 205 206 205 207 212 210 204 204 207 208 209 211 213 214 215 217 219 222 224 227 231 234 235 236 237 239 240 241 243 245 247 248 250 253 256 262
282 279 277 275 272 269 268 267 265 263 263 261 259 260 260 260 260 258 257 256 255 253 251 250 249 247 246 246 246 244 242 241 241 241 240 238 237 237 237 237 237 237 237 236 234 233 235 236 218 201 202 206 207 209 209 204 200 199 200 204 210 212 212 213 215 219 222 224 225 230 234 237 238 239 239 240 242 244 246 247 247 249 251 256 263
282 279 277 275 273 272 270 268 266 265 263 261 260 260 260 260 260 259 258 258 258 256 254 253 251 250 249 248 248 246 244 243 243 242 241 239 239 238 238 238 237 236 235 235 233 228 225 223 214 208 209 209 207 206 206 203 200 199 196 194 200 207 210 212 215 217 220 223 225 229 234 238 241 242 241 241 242 243 245 244 244 247 251 257 264
285 283 280 278 276 274 272 269 267 266 263 260 259 259 259 259 259 258 258 258 259 258 257 256 254 253 252 250 249 248 247 246 246 245 243 241 240 240 240 238 236 235 233 231 228 223 219 216 213 212 208 204 202 200 197 193 194 198 196 193 195 202 207 211 214 216 219 223 226 230 233 237 241 241 240 240 241 242 244 244 244 247 253 259 264
292 289 285 282 278 275 274 271 269 266 262 260 259 259 259 259 258 258 258 258 258 258 258 258 257 255 253 252 251 251 250 249 249 248 247 245 243 241 241 238 234 232 231 228 222 217 215 215 215 211 203 199 198 193 190 192 194 193 192 193 195 200 204 209 213 216 219 223 228 231 233 236 240 241 240 240 241 243 244 245 247 250 255 260 263
298 295 291 286 282 278 276 273 271 267 264 262 261 261 260 259 259 259 259 258 258 258 259 259 259 258 256 255 254 254 253 252 251 250 249 248 246 245 244 240 234 230 227 225 221 217 215 215 213 206 200 203 201 194 193 196 196 190 187 189 190 193 197 204 214 220 222 223 228 233 235 237 240 241 240 239 239 241 243 245 248 252 255 258 261
302 298 293 288 284 281 278 275 272 269 267 265 265 263 262 261 260 259 260 260 259 259 259 259 260 260 259 258 258 257 256 255 253 252 251 250 249 248 247 243 239 234 229 225 223 219 217 217 216 209 207 209 205 198 196 195 191 187 187 187 186 185 188 196 208 217 220 221 225 232 236 238 239 237 235 237 238 239 241 244 246 249 253 256 259
306 300 294 289 285 283 279 276 273 271 269 268 267 265 263 262 261 260 260 261 261 260 260 260 260 260 260 260 259 259 257 256 255 254 253 252 251 250 248 245 243 240 236 232 228 223 218 218 217 214 213 213 206 198 195 191 186 186 188 188 187 187 189 194 198 202 212 216 219 227 234 235 234 232 232 236 238 236 238 241 243 246 251 253 256
306 299 295 291 287 283 280 276 275 273 271 269 267 266 265 264 262 262 261 261 261 262 261 261 261 261 261 261 262 261 259 258 256 254 253 253 252 251 249 246 244 242 240 237 234 230 225 220 218 217 216 213 205 198 195 191 186 183 185 188 190 190 192 197 200 199 201 207 211 218 227 232 231 229 229 232 233 232 235 239 241 243 246 248 251
301 297 294 290 287 284 280 278 276 274 271 270 269 267 266 266 264 263 262 262 262 263 262 262 262 262 262 262 262 263 263 261 258 256 253 253 252 251 248 245 242 241 240 239 236 233 230 224 221 221 218 212 206 201 195 192 191 189 189 192 194 195 196 198 200 201 201 205 208 209 216 226 226 224 226 229 231 233 235 236 237 237 240 242 242
300 297 293 290 288 285 282 279 277 276 274 272 272 270 268 268 267 264 263 262 262 263 263 263 262 262 262 262 262 263 264 263 261 258 255 253 251 249 246 244 242 240 239 238 236 232 229 226 224 223 218 211 207 202 196 197 200 201 202 203 200 194 191 190 193 200 205 208 206 201 207 219 220 222 228 231 232 233 230 228 230 233 236 237 233
304 300 296 293 291 288 286 282 278 279 281 278 275 275 273 270 268 264 261 261 261 262 263 263 263 263 262 261 261 262 263 263 262 259 257 253 248 245 244 243 242 241 239 239 237 231 227 225 224 223 219 212 207 204 204 204 205 204 201 198 193 185 179 180 187 195 202 205 204 203 208 216 217 220 228 229 226 225 223 224 229 233 233 229 226
308 304 301 299 296 292 290 286 282 284 287 286 283 282 278 273 269 265 261 260 260 260 262 263 264 264 263 262 261 262 263 263 262 260 257 252 246 242 242 241 240 240 239 237 233 227 222 221 220 219 217 213 209 210 212 209 205 200 192 181 179 180 177 177 184 193 200 203 204 206 209 215 216 217 219 220 219 220 223 228 229 228 226 223 225
311 309 307 304 302 298 295 293 291 290 291 291 288 285 282 277 271 266 262 261 260 260 262 263 264 264 264 263 262 261 262 262 262 260 256 250 244 240 239 237 236 236 234 229 221 216 215 218 218 216 214 213 212 214 215 210 205 202 196 188 184 182 179 180 182 185 196 205 205 204 206 212 215 212 208 210 218 224 227 228 225 222 222 221 222
314 312 311 308 305 303 300 298 296 292 292 293 291 287 285 280 273 268 264 261 260 261 262 263 265 264 264 264 263 261 262 263 262 260 257 249 242 239 237 233 231 233 230 220 213 212 211 212 213 212 211 211 212 212 212 208 206 205 202 196 189 182 180 181 177 167 177 209 209 204 203 207 210 206 201 196 208 229 226 222 220 219 216 213 213